THORAD AGENA D DEB, 4449

Orbit data source: Space-Track

THORAD AGENA D DEB, 4449 is space debris in LEO originally from a launch on Tue, 30 Sep 1969 UTC launched from the Air Force Western Test Range (AFWTR). Debris objects in space refer to the collection of defunct objects orbiting the Earth. Examples of debris include non-operational satellites, rocket bodies, and fragments generated from explosions, collisions, or faulty payload assembly.

Loading next visibility...
Identifier
4449, 1969-082EU
Orbit
LEO
Country
Flag of USUS
Related business
Manufacturer
Unknown
Mission
Spacecraft
Bus & Motor
Unknown
Mass
Unknown
Launch date (UTC)
1969-09-30 (57 years ago)
Launch vehicle
Unknown
Launch site
Air Force Western Test Range (AFWTR)
Object type
Payload
Rocket body
Debris
Shape & HBR
Unknown shape, 0.1 m
Radar Cross Section
Medium (>0.1 m² and <1 m²)

Expand to show TLE details & history
Last TLE update: 3 days ago

TLE from 3 days ago
0 THORAD AGENA D DEB
1 04449U 69082EU  26171.17213662  .00001230  00000-0  35961-3 0  9994
2 04449  69.9718  93.5196 0050469   8.2915 351.9038 14.45602542940864
Epoch: 2026-06-20T04:07Z
TLE epoch observation values (Epoch: 2026-06-20T04:07:52.603Z)
Latitude
-0.00007°
Longitude
123.15982°
Altitude
706.844 km
Speed
7.521 km/s
True Right ascension
06h 14m 04s
True Declination
0° 00' 00"
Sunlit
Object was in daylight at epoch
Visualization orbit readout
Latitude
Unknown
Longitude
Unknown
Altitude
Unknown
Speed
Unknown
Apparent Right ascension
Unknown
Apparent Declination
Unknown
Sunlit
N/A
Visualization observer readout
Local Sidereal Time
12:49:14
Azimuth
Unknown
Elevation
Unknown
Doppler factor
Unknown
Orbital elements
Apogee altitude
773.962 km
Perigee altitude
702.133 km
Semi-major axis
7,116.184 km
Eccentricity
0.00505
Inclination
69.9718°
RAAN
93.5196°
Arg. of periapsis
8.2915°
True anomaly
351.82184°
Mean anomaly
351.9038°
Eccentric anomaly
351.86287°
Mean motion
3.61553 °/min
Orbital period
99.57 mins
BSTAR
0.00035961

Documentation

Showing up to 5 results
|